STARLINK-35905

Last updated on Fri Dec 19 2025 00:02:10 GMT+0000 (Coordinated Universal Time)

1 67048U 25294U 25351.83335648 -.01382220 56989-3 -32043-2 0 9997 2 67048 43.0002 151.2544 0001742 278.8328 148.3106 15.96281015 2126
UTC large
Height (km)
Speed (km/s)
/
Latitude / Longitude
Inclination (degrees)
Orbital Period (minutes)
Azimuth
Elevation
Range (km)
Doppler Factor

Next 0 passes for location: London (51.5072 / 0.1276)

Sorry there are no passes over London.